Location: Baix
(44.7118°N, 4.7648°E)
Time: 14:45:48
(UTC+00:00)

Explorer 11/Cluster Stage 4 - Pass Details

Date: 05 December 2020
Orbit: 467 x 1258 km, 28.8° (Epoch: 14 January)

Event Time Altitude Azimuth Distance (km) Brightness Sun altitude
Rises 21:51:35 0° 252° (WSW) 4,068 - -59.8°
Reaches altitude 10° 21:55:46 10° 234° (SW) 2,984 - -60.3°
Maximum altitude 22:00:00 16° 199° (SSW) 2,395 - -60.9°
Drops below altitude 10° 22:03:51 10° 163° (SSE) 2,663 - -61.4°
Sets 22:07:17 0° 142° (SE) 3,437 - -61.8°
